Tracking 29892 objects as of 21-Nov-2024
HD Live streaming from Space Station
objects crossing your sky now

STARLINK-5592

Track STARLINK-5592 now!
10-day predictions
STARLINK-5592 is classified as:


NORAD ID: 55741
Int'l Code: 2023-028A
Perigee: 577.1 km
Apogee: 581.3 km
Inclination: 70.0 °
Period: 96.1 minutes
Semi major axis: 6950 km
RCS: Unknown
Launch date: March 3, 2023
Source: United States (US)
Launch site: AIR FORCE WESTERN TEST RANGE (AFWTR)
Your satellite tracking list
Your tracking list is empty




NASA's NSSDC Master Catalog

Two Line Element Set (TLE):
1 55741U 23028A   24324.53469574  .00000541  00000-0  53118-4 0  9997
2 55741  69.9998   2.6074 0003025 269.5089  90.5724 14.98333243 95058
Source of the keplerian elements: AFSPC